When you browse on this site, cookies collect data to enhance your experience and personalize the content and advertising you see.
Visit our Privacy Policy to learn more. By continuing to use the site, you agree to this use of cookies and data.
  • In Lithuania
  • List of Countries
  • For 7 days
  • Water Temperature
  • Weather Map
  • Weather Widgets
  • user-avatar
    Login

    Hourly Weather Bagny

    Today, 25 August, Sunday

    Time Temperature Precipitation Wind Pressure Humidity
    00:00 +16°C° 0 mm 1 mps 757 mmHg 68%
    01:00 +16°C° 0 mm 1 mps 757 mmHg 70%
    02:00 +15°C° 0 mm 1 mps 757 mmHg 73%
    03:00 +15°C° 0 mm 1 mps 757 mmHg 75%
    04:00 +14°C° 0 mm 1 mps 757 mmHg 77%
    05:00 +14°C° 0 mm 1 mps 757 mmHg 79%
    06:00 +15°C° 0 mm 2 mps 757 mmHg 76%
    07:00 +17°C° 0 mm 2 mps 757 mmHg 73%
    08:00 +18°C° 0 mm 2 mps 757 mmHg 69%
    09:00 +20°C° 0 mm 3 mps 757 mmHg 63%
    10:00 +22°C° 0 mm 3 mps 757 mmHg 57%
    11:00 +25°C° 0 mm 3 mps 757 mmHg 52%
    12:00 +25°C° 0 mm 3 mps 757 mmHg 49%
    13:00 +26°C° 0 mm 3 mps 757 mmHg 46%
    14:00 +27°C° 0 mm 3 mps 757 mmHg 44%
    15:00 +26°C° 0 mm 3 mps 757 mmHg 46%
    16:00 +26°C° 0 mm 3 mps 756 mmHg 49%
    17:00 +26°C° 0 mm 3 mps 756 mmHg 51%
    18:00 +24°C° 0 mm 3 mps 756 mmHg 58%
    19:00 +21°C° 0 mm 3 mps 756 mmHg 65%
    20:00 +19°C° 0 mm 3 mps 756 mmHg 71%
    21:00 +18°C° 0 mm 3 mps 756 mmHg 73%
    22:00 +18°C° 0 mm 3 mps 756 mmHg 75%
    23:00 +17°C° 0 mm 3 mps 756 mmHg 77%

    Tomorrow, 26 August, Monday

    Time Temperature Precipitation Wind Pressure Humidity
    00:00 +17°C° 0 mm 3 mps 756 mmHg 80%
    01:00 +16°C° 0 mm 3 mps 757 mmHg 83%
    02:00 +16°C° 0 mm 3 mps 757 mmHg 85%
    03:00 +15°C° 0 mm 2 mps 756 mmHg 86%
    04:00 +15°C° 0 mm 2 mps 756 mmHg 86%
    05:00 +15°C° 0 mm 2 mps 756 mmHg 86%
    06:00 +16°C° 0 mm 3 mps 756 mmHg 80%
    07:00 +17°C° 0 mm 3 mps 756 mmHg 75%
    08:00 +19°C° 0 mm 3 mps 756 mmHg 70%
    09:00 +21°C° 0 mm 4 mps 756 mmHg 64%
    10:00 +23°C° 0 mm 4 mps 756 mmHg 59%
    11:00 +25°C° 0 mm 4 mps 756 mmHg 54%
    12:00 +26°C° 0 mm 4 mps 756 mmHg 52%
    13:00 +27°C° 0 mm 5 mps 756 mmHg 49%
    14:00 +28°C° 0 mm 5 mps 756 mmHg 47%
    15:00 +28°C° 0 mm 4 mps 755 mmHg 49%
    16:00 +28°C° 0 mm 4 mps 755 mmHg 50%
    17:00 +27°C° 0 mm 4 mps 755 mmHg 52%
    18:00 +26°C° 0 mm 3 mps 755 mmHg 59%
    19:00 +24°C° 0 mm 3 mps 755 mmHg 67%
    20:00 +21°C° 0 mm 3 mps 755 mmHg 74%
    21:00 +20°C° 0 mm 3 mps 755 mmHg 76%
    22:00 +20°C° 0 mm 3 mps 755 mmHg 78%
    23:00 +19°C° 0 mm 3 mps 755 mmHg 80%

    Day after tomorrow, 27 August, Tuesday

    Time Temperature Precipitation Wind Pressure Humidity
    00:00 +19°C° 0 mm 3 mps 755 mmHg 81%
    01:00 +18°C° 0 mm 3 mps 755 mmHg 82%
    02:00 +18°C° 0 mm 2 mps 755 mmHg 83%
    03:00 +17°C° 0 mm 3 mps 755 mmHg 85%
    04:00 +17°C° 0 mm 3 mps 755 mmHg 87%
    05:00 +17°C° 0 mm 3 mps 754 mmHg 88%
    06:00 +18°C° 0 mm 3 mps 755 mmHg 84%
    07:00 +19°C° 0 mm 3 mps 755 mmHg 79%
    08:00 +21°C° 0 mm 3 mps 755 mmHg 75%
    09:00 +23°C° 0 mm 4 mps 755 mmHg 68%
    10:00 +25°C° 0 mm 4 mps 755 mmHg 62%
    11:00 +27°C° 0 mm 4 mps 755 mmHg 56%
    12:00 +28°C° 0 mm 4 mps 755 mmHg 53%
    13:00 +28°C° 0 mm 3 mps 755 mmHg 50%
    14:00 +29°C° 0 mm 3 mps 755 mmHg 47%
    15:00 +29°C° 0 mm 3 mps 755 mmHg 48%
    16:00 +28°C° 0 mm 3 mps 754 mmHg 49%
    17:00 +28°C° 0 mm 3 mps 754 mmHg 51%
    18:00 +26°C° 0 mm 3 mps 754 mmHg 58%
    19:00 +24°C° 0 mm 3 mps 754 mmHg 64%
    20:00 +21°C° 0 mm 3 mps 754 mmHg 71%
    21:00 +21°C° 0 mm 3 mps 754 mmHg 75%
    22:00 +20°C° 0 mm 3 mps 755 mmHg 78%
    23:00 +19°C° 0 mm 3 mps 755 mmHg 82%

    28 August, Wednesday

    Time Temperature Precipitation Wind Pressure Humidity
    00:00 +19°C° 0 mm 3 mps 755 mmHg 83%
    01:00 +18°C° 0 mm 3 mps 755 mmHg 85%
    02:00 +18°C° 0 mm 3 mps 754 mmHg 87%
    03:00 +17°C° 0 mm 3 mps 754 mmHg 87%
    04:00 +17°C° 0 mm 3 mps 754 mmHg 88%
    05:00 +17°C° 0 mm 3 mps 754 mmHg 89%
    06:00 +18°C° 0 mm 3 mps 754 mmHg 83%
    07:00 +19°C° 0 mm 3 mps 754 mmHg 78%
    08:00 +20°C° 0 mm 4 mps 754 mmHg 73%
    09:00 +22°C° 0 mm 4 mps 754 mmHg 67%
    10:00 +25°C° 0 mm 4 mps 754 mmHg 62%
    11:00 +27°C° 0 mm 4 mps 754 mmHg 56%
    12:00 +27°C° 0 mm 4 mps 754 mmHg 54%
    13:00 +28°C° 0 mm 4 mps 754 mmHg 52%
    14:00 +29°C° 0 mm 4 mps 754 mmHg 50%
    15:00 +28°C° 0 mm 4 mps 754 mmHg 51%
    16:00 +28°C° 0 mm 4 mps 754 mmHg 53%
    17:00 +28°C° 0 mm 4 mps 753 mmHg 55%
    18:00 +26°C° 0 mm 4 mps 753 mmHg 61%
    19:00 +23°C° 0 mm 4 mps 753 mmHg 67%
    20:00 +21°C° 0 mm 4 mps 753 mmHg 73%
    21:00 +21°C° 0 mm 4 mps 753 mmHg 72%
    22:00 +20°C° 0 mm 4 mps 753 mmHg 71%
    23:00 +19°C° 0 mm 5 mps 753 mmHg 70%

    29 August, Thursday

    Time Temperature Precipitation Wind Pressure Humidity
    00:00 +19°C° 0 mm 4 mps 753 mmHg 70%
    01:00 +18°C° 0 mm 4 mps 753 mmHg 69%
    02:00 +18°C° 0 mm 4 mps 753 mmHg 68%
    03:00 +17°C° 0 mm 4 mps 753 mmHg 70%
    04:00 +17°C° 0 mm 4 mps 753 mmHg 71%
    05:00 +15°C° 0 mm 4 mps 753 mmHg 72%
    06:00 +17°C° 0 mm 4 mps 753 mmHg 72%
    07:00 +17°C° 0 mm 4 mps 753 mmHg 71%
    08:00 +17°C° 0 mm 5 mps 753 mmHg 70%
    09:00 +20°C° 0 mm 5 mps 753 mmHg 66%
    10:00 +21°C° 0 mm 5 mps 753 mmHg 61%
    11:00 +23°C° 0 mm 6 mps 753 mmHg 57%
    12:00 +24°C° 0 mm 6 mps 753 mmHg 55%
    13:00 +24°C° 0 mm 6 mps 753 mmHg 52%
    14:00 +26°C° 0 mm 6 mps 753 mmHg 50%
    15:00 +26°C° 0 mm 6 mps 753 mmHg 51%
    16:00 +26°C° 0 mm 6 mps 753 mmHg 53%
    17:00 +24°C° 0 mm 6 mps 752 mmHg 54%
    18:00 +23°C° 0 mm 5 mps 752 mmHg 59%
    19:00 +21°C° 0 mm 5 mps 752 mmHg 64%
    20:00 +19°C° 0 mm 5 mps 752 mmHg 68%
    21:00 +17°C° 0 mm 5 mps 753 mmHg 69%
    22:00 +17°C° 0 mm 5 mps 753 mmHg 69%
    23:00 +16°C° 0 mm 5 mps 753 mmHg 69%

    30 August, Friday

    Time Temperature Precipitation Wind Pressure Humidity
    00:00 +15°C° 0 mm 4 mps 753 mmHg 68%
    01:00 +14°C° 0 mm 4 mps 753 mmHg 67%
    02:00 +14°C° 0 mm 4 mps 753 mmHg 66%
    03:00 +13°C° 0 mm 4 mps 753 mmHg 64%
    04:00 +13°C° 0 mm 4 mps 753 mmHg 62%
    05:00 +12°C° 0 mm 4 mps 753 mmHg 60%
    06:00 +13°C° 0 mm 4 mps 753 mmHg 59%
    07:00 +13°C° 0 mm 5 mps 753 mmHg 58%
    08:00 +14°C° 0 mm 5 mps 753 mmHg 58%
    09:00 +16°C° 0 mm 5 mps 753 mmHg 55%
    10:00 +19°C° 0 mm 5 mps 754 mmHg 52%
    11:00 +21°C° 0 mm 5 mps 754 mmHg 49%
    12:00 +22°C° 0 mm 5 mps 754 mmHg 47%
    13:00 +23°C° 0 mm 5 mps 753 mmHg 45%
    14:00 +25°C° 0 mm 5 mps 753 mmHg 42%
    15:00 +25°C° 0 mm 5 mps 753 mmHg 44%
    16:00 +25°C° 0 mm 5 mps 753 mmHg 45%
    17:00 +25°C° 0 mm 5 mps 752 mmHg 46%
    18:00 +22°C° 0 mm 4 mps 752 mmHg 52%
    19:00 +20°C° 0 mm 4 mps 752 mmHg 58%
    20:00 +18°C° 0 mm 3 mps 752 mmHg 64%
    21:00 +17°C° 0 mm 3 mps 752 mmHg 63%
    22:00 +17°C° 0 mm 3 mps 753 mmHg 62%
    23:00 +16°C° 0 mm 3 mps 753 mmHg 61%
    Show more